Date,TemperatureHighF,TemperatureAvgF,TemperatureLowF,DewpointHighF,DewpointAvgF,DewpointLowF,HumidityHigh,HumidityAvg,HumidityLow,PressureMaxIn,PressureMinIn,WindSpeedMaxMPH,WindSpeedAvgMPH,GustSpeedMaxMPH,PrecipitationSumIn
2013-1-13,66.2,58.1,37.4,62.3,56.0,37.1,100,93,75,29.90,29.64,13,5,19,1.25
2013-1-14,37.2,31.6,27.7,35.9,27.1,22.2,95,83,72,30.21,29.92,5,2,9,0.00
2013-1-15,33.1,30.1,27.3,30.8,26.2,23.4,96,86,78,30.10,29.85,8,3,11,0.02
2013-1-16,34.2,32.9,31.6,32.6,31.9,30.7,100,96,92,29.90,29.75,3,0,4,0.00
2013-1-17,41.2,33.1,29.5,32.5,28.8,26.6,95,84,71,30.13,29.89,5,1,9,0.00
2013-1-18,44.6,32.4,19.6,27.6,20.9,15.8,86,65,39,30.31,30.12,8,2,11,0.00
2013-1-19,56.5,43.2,34.2,27.7,23.9,20.4,68,49,27,30.11,29.83,14,9,22,0.06
2013-1-20,52.5,41.3,26.1,32.0,17.6,0.0,74,43,22,30.01,29.83,10,3,22,0.00
2013-1-21,36.5,26.4,16.5,14.4,4.3,-7.8,56,41,22,30.03,29.88,10,3,23,0.06
2013-1-22,28.2,16.8,11.3,-3.2,-8.7,-14.5,45,33,22,30.18,30.03,6,2,15,0.00
2013-1-23,38.3,24.5,13.6,14.9,2.6,-11.0,51,40,25,30.15,29.86,7,2,14,0.00
2013-1-24,32.2,23.6,16.0,13.4,-0.2,-8.4,55,38,23,30.33,29.88,6,3,16,0.00
2013-1-25,27.9,24.0,20.5,23.5,13.2,-1.2,86,66,39,30.20,29.84,4,2,11,0.00
2013-1-26,45.7,26.8,24.6,25.1,21.9,14.0,90,83,35,30.20,29.97,7,4,14,0.04
2013-1-27,48.7,34.6,20.7,40.9,23.6,14.2,97,67,36,30.21,30.01,8,2,100,0.18
2013-1-28,55.4,49.7,41.5,52.6,45.6,37.2,100,87,66,30.01,29.90,17,9,26,0.35
2013-1-29,69.8,60.4,52.2,58.7,53.3,48.4,91,79,63,29.92,29.55,16,9,29,0.02
2013-1-30,69.4,55.8,35.8,58.7,49.6,28.9,99,81,67,29.56,29.18,33,10,41,4.61
2013-1-31,37.9,31.1,27.1,29.4,20.8,14.3,95,66,45,29.78,29.41,13,6,27,0.35
2013-2-1,28.4,16.7,7.2,26.9,0.5,-7.0,94,50,33,30.22,29.76,10,4,21,0.12
2013-2-2,34.5,26.1,15.4,29.4,19.5,4.4,87,76,59,30.14,29.80,11,4,21,0.01
2013-2-3,32.9,29.1,24.6,24.6,21.4,14.3,81,73,63,29.94,29.74,6,2,18,0.00
2013-2-4,47.5,32.8,16.3,41.0,23.4,11.0,94,70,46,29.94,29.64,12,4,22,0.09
2013-2-5,52.7,45.4,41.2,41.4,37.4,31.6,95,76,50,29.81,29.66,8,4,17,0.00
2013-2-6,57.0,39.1,27.7,35.3,29.4,23.8,92,71,37,30.04,29.81,4,1,11,0.00
2013-2-7,67.1,49.1,34.7,37.1,31.3,26.5,77,55,28,30.00,29.70,7,3,17,0.00
2013-2-8,50.2,40.5,33.8,47.4,34.7,27.5,100,81,54,30.10,29.63,8,4,19,0.12
2013-2-9,51.1,36.5,24.6,27.8,20.4,13.7,79,56,27,30.20,30.00,4,2,9,0.00
2013-2-10,61.0,45.3,32.2,46.7,27.7,16.1,95,55,25,30.01,29.65,13,5,26,0.21
2013-2-11,55.9,51.3,41.9,52.5,35.6,21.1,92,60,32,29.89,29.65,12,7,24,0.58
2013-2-12,56.8,42.5,32.2,30.5,23.7,15.8,73,51,25,29.96,29.73,6,2,13,0.00
2013-2-13,40.1,36.5,32.0,35.0,29.0,23.2,89,75,59,29.74,29.54,4,1,10,0.07
2013-2-14,32.4,31.3,30.6,30.0,29.4,28.6,94,92,89,29.76,29.73,5,4,10,0.00
2013-2-25,54.5,37.3,24.6,23.8,21.4,17.2,77,55,29,29.92,29.67,7,3,11,0.00
2013-2-26,55.8,46.3,39.7,50.9,38.5,23.7,92,75,51,29.66,29.19,11,5,19,0.43
2013-2-27,43.2,37.8,34.0,37.4,33.5,30.1,91,85,73,29.59,29.39,11,7,17,0.14
2013-2-28,35.1,33.6,32.2,32.2,29.3,27.2,91,84,81,29.76,29.56,10,5,14,0.06
2013-3-1,38.8,35.3,32.7,34.7,32.1,30.7,92,88,79,29.79,29.72,4,1,6,0.08
2013-3-2,33.3,29.6,26.8,30.7,23.6,19.8,92,78,61,29.87,29.77,4,1,8,0.01
2013-3-3,38.8,27.9,23.4,24.1,16.3,12.4,82,62,42,29.88,29.83,6,1,11,0.01
2013-3-4,51.1,33.5,18.7,24.7,18.9,13.0,85,59,29,29.95,29.76,7,2,10,0.01
2013-3-5,46.4,39.8,30.9,46.1,37.7,24.8,100,93,53,29.78,29.35,10,4,27,1.72
2013-3-6,33.6,30.7,28.4,28.2,27.0,26.1,94,86,77,30.05,29.54,9,4,26,0.02
2013-3-7,39.0,33.4,30.7,31.0,26.9,24.8,87,77,62,30.16,30.03,2,1,7,0.02
2013-3-8,52.7,39.1,27.3,30.3,26.1,19.8,84,62,40,30.23,30.13,5,2,12,0.01